DW6757 Weather Reports


Display with metric or nautical units.
time (UTC)temp
F
wind
direction
speed
MPH
gust
MPH
rain 1hr
in
rain 24hr
in
rain mn
in
humidity
%
barometer
mb
20260902051005 82 80 2.0 4.0 0.00 0.00 0.00 72 1014.6
20260902050504 83 82 2.0 4.0 0.00 0.00 0.00 71 1014.6
20260902050007 83 77 2.0 4.0 0.00 0.00 0.00 71 1014.6
20260902045505 83 65 1.0 3.0 0.00 0.00 0.00 70 1014.6
20260902045004 83 73 2.0 4.0 0.00 0.00 0.00 69 1014.5
20260902044504 84 96 2.0 4.0 0.00 0.00 0.00 69 1014.5
20260902044004 84 166 1.0 3.0 0.00 0.00 0.00 69 1014.4
20260902043504 84 187 2.0 5.0 0.00 0.00 0.00 69 1014.3
20260902043004 84 194 3.0 5.0 0.00 0.00 0.00 69 1014.2
20260902042504 84 195 3.0 5.0 0.00 0.00 0.00 69 1014.0
20260902042004 84 192 3.0 5.0 0.00 0.00 0.00 69 1014.1
20260902041505 84 186 3.0 7.0 0.00 0.00 0.00 68 1014.1
20260902041004 84 178 3.0 7.0 0.00 0.00 0.00 68 1014.1
20260902040505 84 167 3.0 6.0 0.00 0.00 0.00 68 1014.0
20260902040005 84 161 3.0 6.0 0.00 0.00 0.00 68 1014.0
20260902035504 85 159 4.0 7.0 0.00 0.00 0.00 68 1014.0
20260902035025 85 160 4.0 9.0 0.00 0.00 0.00 68 1014.0
20260902034504 84 156 4.0 9.0 0.00 0.00 0.00 68 1013.9
20260902034005 85 149 3.0 7.0 0.00 0.00 0.00 68 1013.9
20260902033526 85 146 3.0 7.0 0.00 0.00 0.00 68 1014.0
20260902033004 85 143 4.0 8.0 0.00 0.00 0.00 68 1013.9
20260902032504 85 143 4.0 8.0 0.00 0.00 0.00 68 1013.9
20260902032004 85 148 5.0 9.0 0.00 0.00 0.00 68 1013.8
20260902031505 85 150 6.0 12.0 0.00 0.00 0.00 67 1013.7
20260902031004 85 146 6.0 12.0 0.00 0.00 0.00 67 1013.5
20260902030505 86 139 6.0 12.0 0.00 0.00 0.00 67 1013.5
20260902030004 86 133 5.0 10.0 0.00 0.00 0.00 66 1013.5
20260902025504 86 125 5.0 9.0 0.00 0.00 0.00 66 1013.4
20260902025004 87 114 4.0 9.0 0.00 0.00 0.00 65 1013.3
20260902024504 87 116 4.0 11.0 0.00 0.00 0.00 63 1013.3
20260902024004 88 122 5.0 11.0 0.00 0.00 0.00 62 1013.2
20260902023525 88 123 5.0 11.0 0.00 0.00 0.00 60 1013.1
20260902023004 89 121 3.0 9.0 0.00 0.00 0.00 59 1012.9
20260902022504 89 112 3.0 7.0 0.00 0.00 0.00 58 1012.7
20260902022004 90 106 3.0 8.0 0.00 0.00 0.00 58 1012.6
20260902021504 90 103 4.0 8.0 0.00 0.00 0.00 57 1012.5
20260902021004 90 100 5.0 11.0 0.00 0.00 0.00 56 1012.4
20260902020504 90 100 5.0 11.0 0.00 0.00 0.00 56 1012.4
20260902020004 90 99 6.0 13.0 0.00 0.00 0.00 55 1012.3
20260902015526 90 97 7.0 13.0 0.00 0.00 0.00 54 1012.3
20260902015004 90 94 6.0 14.0 0.00 0.00 0.00 54 1012.3
20260902014504 90 92 4.0 10.0 0.00 0.00 0.00 54 1012.2
20260902014004 90 89 4.0 7.0 0.00 0.00 0.00 54 1012.1
20260902013504 90 87 4.0 8.0 0.00 0.00 0.00 53 1012.1
20260902013004 91 87 4.0 8.0 0.00 0.00 0.00 53 1012.1
20260902012504 91 86 3.0 7.0 0.00 0.00 0.00 53 1012.0
20260902012004 91 84 4.0 8.0 0.00 0.00 0.00 53 1012.0
20260902011504 91 83 4.0 8.0 0.00 0.00 0.00 53 1011.9
20260902011025 91 82 4.0 8.0 0.00 0.00 0.00 53 1011.8
20260902010525 92 83 4.0 8.0 0.00 0.00 0.00 54 1011.7
20260902010005 92 84 4.0 8.0 0.00 0.00 0.00 53 1011.8
20260902005526 92 85 4.0 8.0 0.00 0.00 0.00 53 1011.6
20260902005006 92 85 5.0 12.0 0.00 0.00 0.00 52 1011.6
20260902004528 93 83 6.0 12.0 0.00 0.00 0.00 52 1011.4
20260902004006 93 83 6.0 10.0 0.00 0.00 0.00 51 1011.4
20260902003505 93 85 6.0 10.0 0.00 0.00 0.00 51 1011.4
20260902003006 94 83 6.0 11.0 0.00 0.00 0.00 51 1011.6
20260902002504 94 83 7.0 11.0 0.00 0.00 0.00 50 1011.6
20260902002004 94 86 6.0 11.0 0.00 0.00 0.00 50 1011.8
20260902001504 94 85 6.0 11.0 0.00 0.00 0.00 49 1011.7
20260902001005 94 83 7.0 14.0 0.00 0.00 0.00 49 1011.7
20260902000525 95 83 7.0 14.0 0.00 0.00 0.00 48 1011.7
20260902000006 95 79 5.0 12.0 0.00 0.00 0.00 47 1011.7
20260901235504 96 75 6.0 13.0 0.00 0.00 0.00 47 1011.6
20260901235004 96 80 7.0 13.0 0.00 0.00 0.00 46 1011.6
20260901234504 97 85 5.0 13.0 0.00 0.00 0.00 44 1011.7
20260901234005 98 85 3.0 7.0 0.00 0.00 0.00 40 1011.6
20260901233504 98 88 3.0 7.0 0.00 0.00 0.00 40 1011.5
20260901233004 98 89 3.0 7.0 0.00 0.00 0.00 40 1011.5
20260901232505 98 84 3.0 7.0 0.00 0.00 0.00 40 1011.5
20260901232004 98 84 3.0 6.0 0.00 0.00 0.00 40 1011.5
20260901231504 98 72 3.0 5.0 0.00 0.00 0.00 40 1011.4
20260901231004 98 76 4.0 8.0 0.00 0.00 0.00 40 1011.5
20260901230525 99 85 5.0 9.0 0.00 0.00 0.00 40 1011.5
20260901230004 99 81 4.0 9.0 0.00 0.00 0.00 40 1011.5
20260901225504 99 76 3.0 8.0 0.00 0.00 0.00 39 1011.5
20260901225004 99 83 3.0 8.0 0.00 0.00 0.00 39 1011.4
20260901224504 100 115 3.0 7.0 0.00 0.00 0.00 39 1011.5
20260901224004 100 102 4.0 8.0 0.00 0.00 0.00 39 1011.5
20260901223526 100 82 2.0 8.0 0.00 0.00 0.00 38 1011.5
20260901223005 101 263 1.0 6.0 0.00 0.00 0.00 39 1011.5
20260901222504 100 3 2.0 7.0 0.00 0.00 0.00 39 1011.5
20260901222004 100 50 3.0 7.0 0.00 0.00 0.00 40 1011.6
20260901221504 100 87 2.0 6.0 0.00 0.00 0.00 40 1011.6
20260901221004 99 154 1.0 5.0 0.00 0.00 0.00 41 1011.5
20260901220525 98 330 1.0 2.0 0.00 0.00 0.00 41 1011.6
20260901220025 98 14 1.0 3.0 0.00 0.00 0.00 41 1011.6
20260901215505 98 71 1.0 4.0 0.00 0.00 0.00 42 1011.7
20260901215004 98 115 2.0 4.0 0.00 0.00 0.00 41 1011.7
20260901214504 99 143 2.0 7.0 0.00 0.00 0.00 41 1011.8
20260901214005 98 138 2.0 7.0 0.00 0.00 0.00 41 1011.7
20260901213504 99 97 3.0 9.0 0.00 0.00 0.00 41 1011.8
20260901213004 99 91 4.0 9.0 0.00 0.00 0.00 41 1011.8
20260901212525 100 92 3.0 9.0 0.00 0.00 0.00 41 1011.8
20260901212025 99 91 4.0 10.0 0.00 0.00 0.00 41 1011.9
20260901211504 100 91 5.0 11.0 0.00 0.00 0.00 41 1012.0
20260901211004 100 113 4.0 11.0 0.00 0.00 0.00 41 1012.0
20260901210504 99 157 2.0 6.0 0.00 0.00 0.00 42 1012.1
20260901210004 98 164 2.0 6.0 0.00 0.00 0.00 43 1012.2
20260901205504 98 96 3.0 8.0 0.00 0.00 0.00 43 1012.2
20260901205025 98 53 3.0 8.0 0.00 0.00 0.00 42 1012.4
20260901204525 98 78 3.0 9.0 0.00 0.00 0.00 43 1012.5
20260901204025 98 79 4.0 10.0 0.00 0.00 0.00 43 1012.6
20260901203504 97 67 3.0 10.0 0.00 0.00 0.00 44 1012.7
20260901203004 96 60 3.0 8.0 0.00 0.00 0.00 45 1012.8
20260901202504 96 65 5.0 12.0 0.00 0.00 0.00 45 1013.0
20260901202025 97 69 5.0 12.0 0.00 0.00 0.00 44 1013.0
20260901201525 98 72 4.0 13.0 0.00 0.00 0.00 43 1013.1
20260901201004 98 66 4.0 13.0 0.00 0.00 0.00 43 1013.1
20260901200504 98 275 2.0 7.0 0.00 0.00 0.00 42 1013.2
20260901200005 98 215 2.0 7.0 0.00 0.00 0.00 43 1013.2
20260901195525 98 217 2.0 7.0 0.00 0.00 0.00 43 1013.3
20260901195004 98 95 2.0 7.0 0.00 0.00 0.00 43 1013.4
20260901194504 98 103 3.0 9.0 0.00 0.00 0.00 44 1013.5
20260901194004 97 87 4.0 12.0 0.00 0.00 0.00 45 1013.5
20260901193504 97 84 3.0 12.0 0.00 0.00 0.00 45 1013.6
20260901193025 97 171 3.0 7.0 0.00 0.00 0.00 46 1013.6
20260901192525 97 139 3.0 8.0 0.00 0.00 0.00 45 1013.7
20260901192004 97 51 3.0 8.0 0.00 0.00 0.00 44 1013.6
20260901191504 97 49 4.0 10.0 0.00 0.00 0.00 45 1013.8
20260901191004 97 71 3.0 10.0 0.00 0.00 0.00 47 1013.9
20260901190504 96 49 2.0 8.0 0.00 0.00 0.00 48 1013.9
20260901190025 94 36 2.0 5.0 0.00 0.00 0.00 49 1014.0
20260901185504 94 67 3.0 8.0 0.00 0.00 0.00 50 1014.2
20260901185004 94 77 3.0 8.0 0.00 0.00 0.00 49 1014.1
20260901184525 95 71 3.0 8.0 0.00 0.00 0.00 48 1014.2
20260901184004 96 53 3.0 8.0 0.00 0.00 0.00 48 1014.3
20260901183504 95 72 4.0 9.0 0.00 0.00 0.00 47 1014.4
20260901183025 95 86 4.0 9.0 0.00 0.00 0.00 48 1014.6
20260901182504 95 83 4.0 8.0 0.00 0.00 0.00 49 1014.6
20260901182004 94 74 3.0 8.0 0.00 0.00 0.00 48 1014.6
20260901181504 93 73 2.0 7.0 0.00 0.00 0.00 52 1014.8
20260901181004 94 85 3.0 12.0 0.00 0.00 0.00 51 1014.9
20260901180504 94 62 4.0 12.0 0.00 0.00 0.00 50 1015.0
20260901180005 94 60 5.0 10.0 0.00 0.00 0.00 49 1015.0
20260901175504 94 77 5.0 10.0 0.00 0.00 0.00 50 1014.9
20260901175004 94 96 4.0 8.0 0.00 0.00 0.00 50 1015.2
20260901174504 94 124 3.0 8.0 0.00 0.00 0.00 50 1015.3
20260901174025 94 172 2.0 7.0 0.00 0.00 0.00 50 1015.3
20260901173504 94 192 2.0 5.0 0.00 0.00 0.00 51 1015.4
20260901173004 93 111 3.0 10.0 0.00 0.00 0.00 51 1015.5
20260901172505 93 150 4.0 10.0 0.00 0.00 0.00 50 1015.7
20260901172004 93 192 4.0 7.0 0.00 0.00 0.00 50 1015.7
20260901171525 94 156 3.0 7.0 0.00 0.00 0.00 50 1015.8
20260901171004 93 35 2.0 5.0 0.00 0.00 0.00 51 1015.8
20260901170504 93 99 2.0 8.0 0.00 0.00 0.00 52 1015.7
20260901170005 93 91 3.0 9.0 0.00 0.00 0.00 53 1015.7
20260901165505 92 114 3.0 9.0 0.00 0.00 0.00 53 1015.9
20260901165004 92 184 2.0 5.0 0.00 0.00 0.00 55 1016.0
20260901164504 91 194 3.0 9.0 0.00 0.00 0.00 55 1016.1
20260901164004 92 181 3.0 9.0 0.00 0.00 0.00 55 1016.2
20260901163504 91 178 3.0 7.0 0.00 0.00 0.00 56 1016.2
20260901163004 91 174 3.0 8.0 0.00 0.00 0.00 54 1016.2
20260901162504 92 137 3.0 8.0 0.00 0.00 0.00 54 1016.3
20260901162004 92 63 2.0 6.0 0.00 0.00 0.00 56 1016.3
20260901161525 91 7 2.0 4.0 0.00 0.00 0.00 59 1016.4
20260901161025 90 330 1.0 4.0 0.00 0.00 0.00 60 1016.4
20260901160504 89 264 2.0 5.0 0.00 0.00 0.00 62 1016.5
20260901160025 89 233 3.0 8.0 0.00 0.00 0.00 62 1016.4
20260901155525 89 207 3.0 8.0 0.00 0.00 0.00 63 1016.4
20260901155004 89 198 2.0 7.0 0.00 0.00 0.00 63 1016.4
20260901154504 88 172 2.0 5.0 0.00 0.00 0.00 65 1016.3
20260901154004 88 171 2.0 6.0 0.00 0.00 0.00 65 1016.3
20260901153504 88 196 2.0 6.0 0.00 0.00 0.00 65 1016.3
20260901153004 88 215 2.0 5.0 0.00 0.00 0.00 65 1016.2
20260901152505 87 257 1.0 6.0 0.00 0.00 0.00 70 1016.2
20260901152004 87 235 1.0 6.0 0.00 0.00 0.00 70 1016.2
20260901151504 86 192 2.0 5.0 0.00 0.00 0.00 73 1016.2
20260901151004 85 203 4.0 8.0 0.00 0.00 0.00 73 1016.2
20260901150525 86 225 3.0 8.0 0.00 0.00 0.00 73 1016.2
20260901150004 85 275 2.0 5.0 0.00 0.00 0.00 73 1016.3
20260901145504 85 259 2.0 5.0 0.00 0.00 0.00 73 1016.2
20260901145025 85 264 2.0 5.0 0.00 0.00 0.00 74 1016.4
20260901144504 84 272 2.0 5.0 0.00 0.00 0.00 76 1016.3
20260901144004 84 231 3.0 5.0 0.00 0.00 0.00 76 1016.4
20260901143504 84 213 2.0 5.0 0.00 0.00 0.00 77 1016.3
20260901143004 84 227 2.0 5.0 0.00 0.00 0.00 77 1016.3
20260901142525 84 199 2.0 5.0 0.00 0.00 0.00 78 1016.4
20260901142004 83 143 2.0 5.0 0.00 0.00 0.00 79 1016.3
20260901141507 83 187 2.0 4.0 0.00 0.00 0.00 81 1016.2
20260901141004 82 201 2.0 4.0 0.00 0.00 0.00 82 1016.2
20260901140504 82 193 2.0 5.0 0.00 0.00 0.00 82 1016.2
20260901140005 82 191 1.0 5.0 0.00 0.00 0.00 83 1016.4
20260901135504 82 239 1.0 4.0 0.00 0.00 0.00 85 1016.3
20260901135025 81 248 1.0 6.0 0.00 0.00 0.00 86 1016.4
20260901134504 81 242 2.0 6.0 0.00 0.00 0.00 86 1016.3
20260901134005 81 231 1.0 4.0 0.00 0.00 0.00 86 1016.3
20260901133506 81 262 0.0 2.0 0.00 0.00 0.00 87 1016.3
20260901133026 80 289 0.0 2.0 0.00 0.00 0.00 88 1016.2
20260901132504 80 298 0.0 2.0 0.00 0.00 0.00 89 1016.3
20260901132026 79 0 0.0 0.0 0.00 0.00 0.00 89 1016.1
20260901131505 79 0 0.0 0.0 0.00 0.00 0.00 90 1016.2
20260901131025 78 0 0.0 0.0 0.00 0.00 0.00 91 1016.1
20260901130503 78 0 0.0 0.0 0.00 0.00 0.00 91 1016.0
20260901130004 77 298 0.0 1.0 0.00 0.00 0.00 90 1015.8
20260901125504 77 298 0.0 1.0 0.00 0.00 0.00 91 1015.7
20260901125004 77 298 0.0 1.0 0.00 0.00 0.00 92 1015.7
20260901124505 76 0 0.0 0.0 0.00 0.00 0.00 92 1015.7
20260901124004 76 0 0.0 0.0 0.00 0.00 0.00 91 1015.7
20260901123504 76 0 0.0 0.0 0.00 0.00 0.00 91 1015.6
20260901123004 76 0 0.0 0.0 0.00 0.00 0.00 90 1015.6
20260901122504 76 0 0.0 0.0 0.00 0.00 0.00 90 1015.6
20260901122004 76 0 0.0 0.0 0.00 0.00 0.00 90 1015.6
20260901121504 76 0 0.0 0.0 0.00 0.00 0.00 90 1015.5
20260901121004 76 0 0.0 0.0 0.00 0.00 0.00 90 1015.5
20260901120525 76 0 0.0 0.0 0.00 0.00 0.00 90 1015.6
20260901120004 76 0 0.0 0.0 0.00 0.00 0.00 89 1015.6
20260901115504 76 0 0.0 0.0 0.00 0.00 0.00 89 1015.5
20260901115004 76 0 0.0 0.0 0.00 0.00 0.00 89 1015.5
20260901114504 76 0 0.0 0.0 0.00 0.00 0.00 89 1015.6
20260901114004 76 0 0.0 0.0 0.00 0.00 0.00 90 1015.5
20260901113525 77 0 0.0 0.0 0.00 0.00 0.00 90 1015.5
20260901113004 77 0 0.0 0.0 0.00 0.00 0.00 90 1015.4
20260901112525 77 0 0.0 0.0 0.00 0.00 0.00 90 1015.4
20260901112004 77 0 0.0 0.0 0.00 0.00 0.00 89 1015.3
20260901111504 77 0 0.0 0.0 0.00 0.00 0.00 89 1015.3
20260901111025 77 298 0.0 2.0 0.00 0.00 0.00 89 1015.3
20260901110504 77 298 0.0 2.0 0.00 0.00 0.00 89 1015.3
20260901110004 77 276 0.0 1.0 0.00 0.00 0.00 89 1015.3
20260901105504 77 266 0.0 2.0 0.00 0.00 0.00 89 1015.4
20260901105004 77 258 0.0 2.0 0.00 0.00 0.00 89 1015.4
20260901104504 77 206 0.0 1.0 0.00 0.00 0.00 89 1015.5
20260901104004 77 0 0.0 0.0 0.00 0.00 0.00 89 1015.5
20260901103525 77 0 0.0 0.0 0.00 0.00 0.00 89 1015.6
20260901103004 78 0 0.0 0.0 0.00 0.00 0.00 89 1015.5
20260901102504 78 206 0.0 1.0 0.00 0.00 0.00 89 1015.5
20260901102004 78 206 0.0 1.0 0.00 0.00 0.00 89 1015.5
20260901101504 78 0 0.0 0.0 0.00 0.00 0.00 88 1015.4
20260901101004 78 206 0.0 1.0 0.00 0.00 0.00 89 1015.4
20260901100504 78 206 0.0 2.0 0.00 0.00 0.00 89 1015.3
20260901100004 78 206 0.0 2.0 0.00 0.00 0.00 89 1015.5
20260901095504 78 206 0.0 1.0 0.00 0.00 0.00 88 1015.5
20260901095004 78 0 0.0 0.0 0.00 0.00 0.00 88 1015.5
20260901094504 77 0 0.0 0.0 0.00 0.00 0.00 88 1015.5
20260901094004 77 0 0.0 0.0 0.00 0.00 0.00 87 1015.4
20260901093504 78 0 0.0 0.0 0.00 0.00 0.00 87 1015.4
20260901093004 78 0 0.0 0.0 0.00 0.00 0.00 87 1015.4
20260901092525 78 0 0.0 0.0 0.00 0.00 0.00 88 1015.4
20260901092004 78 0 0.0 0.0 0.00 0.00 0.00 88 1015.4
20260901091504 78 206 0.0 1.0 0.00 0.00 0.00 88 1015.4
20260901091004 78 206 0.0 1.0 0.00 0.00 0.00 88 1015.5
20260901090504 78 0 0.0 0.0 0.00 0.00 0.00 88 1015.4
20260901090004 78 0 0.0 0.0 0.00 0.00 0.00 88 1015.5
20260901085524 78 0 0.0 0.0 0.00 0.00 0.00 88 1015.4
20260901085004 78 0 0.0 0.0 0.00 0.00 0.00 88 1015.5
20260901084525 78 0 0.0 0.0 0.00 0.00 0.00 88 1015.5
20260901084004 78 206 0.0 1.0 0.00 0.00 0.00 88 1015.5
20260901083504 78 206 0.0 1.0 0.00 0.00 0.00 87 1015.5
20260901083004 78 206 0.0 1.0 0.00 0.00 0.00 87 1015.5
20260901082504 78 0 0.0 0.0 0.00 0.00 0.00 87 1015.5
20260901082004 78 0 0.0 0.0 0.00 0.00 0.00 86 1015.5
20260901081503 79 0 0.0 0.0 0.00 0.00 0.00 86 1015.5
20260901081004 79 0 0.0 0.0 0.00 0.00 0.00 86 1015.6
20260901080504 79 0 0.0 0.0 0.00 0.00 0.00 85 1015.5
20260901080004 79 0 0.0 0.0 0.00 0.00 0.00 85 1015.5
20260901075525 79 206 0.0 1.0 0.00 0.00 0.00 85 1015.4
20260901075004 79 206 0.0 1.0 0.00 0.00 0.00 85 1015.4
20260901074504 79 206 0.0 1.0 0.00 0.00 0.00 85 1015.4
20260901074004 79 206 0.0 3.0 0.00 0.00 0.00 85 1015.5
20260901073504 79 206 1.0 3.0 0.00 0.00 0.00 85 1015.4
20260901073004 79 202 2.0 3.0 0.00 0.00 0.00 84 1015.4
20260901072504 79 193 2.0 5.0 0.00 0.00 0.00 84 1015.3
20260901072004 80 190 3.0 8.0 0.00 0.00 0.00 84 1015.5
20260901071504 80 186 3.0 8.0 0.00 0.00 0.00 83 1015.4
20260901071025 80 179 3.0 6.0 0.00 0.00 0.00 83 1015.5
20260901070504 80 186 3.0 6.0 0.00 0.00 0.00 82 1015.5
20260901070004 80 190 3.0 7.0 0.00 0.00 0.00 82 1015.4
20260901065504 80 189 4.0 7.0 0.00 0.00 0.00 82 1015.4
20260901065004 80 191 3.0 6.0 0.00 0.00 0.00 81 1015.4
20260901064504 80 186 3.0 6.0 0.00 0.00 0.00 80 1015.4
20260901064004 80 176 3.0 6.0 0.00 0.00 0.00 80 1015.4
20260901063504 80 160 2.0 5.0 0.00 0.00 0.00 79 1015.4
20260901063004 80 154 3.0 6.0 0.00 0.00 0.00 79 1015.5
20260901062525 80 157 3.0 6.0 0.00 0.00 0.00 78 1015.5
20260901062004 81 161 2.0 5.0 0.00 0.00 0.00 77 1015.3
20260901061504 81 151 2.0 4.0 0.00 0.00 0.00 77 1015.3
20260901061004 81 145 3.0 5.0 0.00 0.00 0.00 76 1015.3
20260901060503 81 147 3.0 5.0 0.00 0.00 0.00 76 1015.3
20260901060004 81 146 2.0 5.0 0.00 0.00 0.00 75 1015.3
20260901055503 81 147 2.0 5.0 0.00 0.00 0.00 74 1015.1
20260901055004 82 154 2.0 5.0 0.00 0.00 0.00 74 1015.2
20260901054504 82 161 2.0 5.0 0.00 0.00 0.00 74 1015.2
20260901054004 82 167 2.0 6.0 0.00 0.00 0.00 73 1015.2
20260901053504 82 169 3.0 6.0 0.00 0.00 0.00 73 1015.1
20260901053003 82 173 2.0 5.0 0.00 0.00 0.00 73 1015.1
20260901052525 82 170 3.0 6.0 0.00 0.00 0.00 72 1015.0
20260901052024 83 161 4.0 8.0 0.00 0.00 0.00 72 1015.0
20260901051524 83 151 4.0 8.0 0.00 0.00 0.00 71 1015.0